,,,PA_Meas_PMT16A,,PR_Meas_QMR101_102,,RH_Meas_QMH101,,SR_Meas_QMS101,,TA_Meas_QMH101,,GenWind,,GenWind,
date,time,status,PA,status,PR,status,RH,status,SR,status,TA,status,DirAvg,status,SpdAvg,
2010-01-30, 00:00:04,VALID,1001.73,VALID,0,VALID,93.234,VALID,0,VALID,23.9531,VALID,293,VALID,0.596094,
2010-01-30, 00:01:04,VALID,1001.75,VALID,0,VALID,93.2416,VALID,0,VALID,23.9744,VALID,293,VALID,0.642578,
2010-01-30, 00:02:04,VALID,1001.75,VALID,0,VALID,93.2721,VALID,0,VALID,23.9744,VALID,293,VALID,0.466406,
2010-01-30, 00:03:04,VALID,1001.78,VALID,0,VALID,93.2492,VALID,0,VALID,23.9744,VALID,266,VALID,0.340625,
2010-01-30, 00:04:04,VALID,1001.74,VALID,0,VALID,93.2568,VALID,0,VALID,23.9549,VALID,250,VALID,0,
2010-01-30, 00:05:04,VALID,1001.75,VALID,0,VALID,93.2874,VALID,0,VALID,23.9549,VALID,244,VALID,0,
2010-01-30, 00:06:04,VALID,1001.74,VALID,0,VALID,93.3026,VALID,0,VALID,23.9549,VALID,244,VALID,0,
2010-01-30, 00:07:04,VALID,1001.72,VALID,0,VALID,93.3103,VALID,0,VALID,23.9549,VALID,244,VALID,0,
2010-01-30, 00:08:04,VALID,1001.72,VALID,0,VALID,93.3179,VALID,0,VALID,23.9549,VALID,244,VALID,0,
2010-01-30, 00:09:04,VALID,1001.74,VALID,0,VALID,93.3179,VALID,0,VALID,23.9744,VALID,244,VALID,0,
2010-01-30, 00:10:04,VALID,1001.71,VALID,0,VALID,93.3255,VALID,0,VALID,23.9549,VALID,244,VALID,0,
2010-01-30, 00:11:04,VALID,1001.71,VALID,0,VALID,93.3331,VALID,0,VALID,23.9336,VALID,244,VALID,0,
2010-01-30, 00:12:04,VALID,1001.69,VALID,0,VALID,93.3331,VALID,0,VALID,23.9354,VALID,244,VALID,0,
2010-01-30, 00:13:04,VALID,1001.69,VALID,0,VALID,93.3408,VALID,0,VALID,23.9354,VALID,244,VALID,0,
2010-01-30, 00:14:04,VALID,1001.65,VALID,0,VALID,93.3331,VALID,0,VALID,23.914,VALID,244,VALID,0,
2010-01-30, 00:15:04,VALID,1001.65,VALID,0,VALID,93.3484,VALID,0,VALID,23.9336,VALID,208,VALID,0,
2010-01-30, 00:16:04,VALID,1001.61,VALID,0,VALID,93.3713,VALID,0,VALID,23.9549,VALID,208,VALID,0,
2010-01-30, 00:17:04,VALID,1001.6,VALID,0,VALID,93.3331,VALID,0,VALID,23.9354,VALID,208,VALID,0,
2010-01-30, 00:18:04,VALID,1001.57,VALID,0,VALID,93.3713,VALID,0.112286,VALID,23.9336,VALID,170,VALID,0,
2010-01-30, 00:19:04,VALID,1001.54,VALID,0,VALID,93.3942,VALID,0,VALID,23.9549,VALID,170,VALID,0.725391,
2010-01-30, 00:20:04,VALID,1001.53,VALID,0,VALID,93.4018,VALID,0,VALID,23.9354,VALID,170,VALID,0.775391,
2010-01-30, 00:21:04,VALID,1001.54,VALID,0,VALID,93.4094,VALID,0,VALID,23.9354,VALID,166,VALID,0.878125,
2010-01-30, 00:22:04,VALID,1001.53,VALID,0,VALID,93.4018,VALID,0,VALID,23.9354,VALID,166,VALID,0.740625,
2010-01-30, 00:23:04,VALID,1001.51,VALID,0,VALID,93.3866,VALID,0,VALID,23.9354,VALID,172,VALID,0.751953,
2010-01-30, 00:24:04,VALID,1001.5,VALID,0,VALID,93.4171,VALID,0.112286,VALID,23.9159,VALID,173,VALID,0.619922,
2010-01-30, 00:25:04,VALID,1001.5,VALID,0,VALID,93.4171,VALID,0,VALID,23.9159,VALID,173,VALID,0.401563,
2010-01-30, 00:26:04,VALID,1001.49,VALID,0,VALID,93.4247,VALID,0,VALID,23.8945,VALID,173,VALID,0.271094,
2010-01-30, 00:27:04,VALID,1001.5,VALID,0,VALID,93.4247,VALID,0,VALID,23.914,VALID,173,VALID,0.0679687,
2010-01-30, 00:28:04,VALID,1001.49,VALID,0,VALID,93.4247,VALID,0,VALID,23.8945,VALID,173,VALID,0,
2010-01-30, 00:29:04,VALID,1001.46,VALID,0,VALID,93.4094,VALID,0,VALID,23.8945,VALID,262,VALID,0,
2010-01-30, 00:30:04,VALID,1001.45,VALID,0,VALID,93.4247,VALID,0,VALID,23.8963,VALID,262,VALID,0,
2010-01-30, 00:31:04,VALID,1001.41,VALID,0,VALID,93.4018,VALID,0,VALID,23.8378,VALID,262,VALID,0,
2010-01-30, 00:32:04,VALID,1001.44,VALID,0,VALID,93.3637,VALID,0,VALID,23.8378,VALID,262,VALID,0,
2010-01-30, 00:33:04,VALID,1001.43,VALID,0,VALID,93.3789,VALID,0,VALID,23.8183,VALID,262,VALID,0,
2010-01-30, 00:34:04,VALID,1001.43,VALID,0,VALID,93.3713,VALID,0,VALID,23.7988,VALID,262,VALID,0,
2010-01-30, 00:35:04,VALID,1001.42,VALID,0,VALID,93.4094,VALID,0,VALID,23.7597,VALID,262,VALID,0,
2010-01-30, 00:36:04,VALID,1001.4,VALID,0,VALID,93.4018,VALID,0,VALID,23.7189,VALID,290,VALID,0.255469,
2010-01-30, 00:37:04,VALID,1001.4,VALID,0,VALID,93.4018,VALID,0,VALID,23.7207,VALID,307,VALID,0.632813,
2010-01-30, 00:38:04,VALID,1001.42,VALID,0,VALID,93.3866,VALID,0,VALID,23.6817,VALID,307,VALID,0.537891,
2010-01-30, 00:39:04,VALID,1001.41,VALID,0,VALID,93.4018,VALID,0,VALID,23.6622,VALID,307,VALID,0.555469,
2010-01-30, 00:40:04,VALID,1001.38,VALID,0,VALID,93.4247,VALID,0,VALID,23.6427,VALID,306,VALID,0.539063,
2010-01-30, 00:41:04,VALID,1001.34,VALID,0,VALID,93.4476,VALID,0,VALID,23.6622,VALID,296,VALID,0.472266,
2010-01-30, 00:42:04,VALID,1001.32,VALID,0,VALID,93.501,VALID,0,VALID,23.6409,VALID,277,VALID,0,
2010-01-30, 00:43:04,VALID,1001.3,VALID,0,VALID,93.5086,VALID,0,VALID,23.6622,VALID,270,VALID,0,
2010-01-30, 00:44:04,VALID,1001.32,VALID,0,VALID,93.5239,VALID,0,VALID,23.6427,VALID,270,VALID,0,
2010-01-30, 00:45:04,VALID,1001.3,VALID,0,VALID,93.5239,VALID,0,VALID,23.6427,VALID,270,VALID,0,
2010-01-30, 00:46:04,VALID,1001.23,VALID,0,VALID,93.5468,VALID,0,VALID,23.6232,VALID,287,VALID,0,
2010-01-30, 00:47:04,VALID,1001.25,VALID,0,VALID,93.5544,VALID,0,VALID,23.6427,VALID,290,VALID,0,
2010-01-30, 00:48:04,VALID,1001.21,VALID,0,VALID,93.5697,VALID,0,VALID,23.6232,VALID,279,VALID,0,
2010-01-30, 00:49:04,VALID,1001.18,VALID,0,VALID,93.5849,VALID,0,VALID,23.6427,VALID,278,VALID,0,
2010-01-30, 00:50:04,VALID,1001.16,VALID,0,VALID,93.5926,VALID,0,VALID,23.6427,VALID,272,VALID,0,
2010-01-30, 00:51:04,VALID,1001.12,VALID,0,VALID,93.6002,VALID,0,VALID,23.6232,VALID,272,VALID,0,
2010-01-30, 00:52:04,VALID,1001.12,VALID,0,VALID,93.6231,VALID,0,VALID,23.6019,VALID,272,VALID,0,
2010-01-30, 00:53:04,VALID,1001.1,VALID,0,VALID,93.6078,VALID,0,VALID,23.6232,VALID,272,VALID,0,
2010-01-30, 00:54:04,VALID,1001.08,VALID,0,VALID,93.6307,VALID,0,VALID,23.6019,VALID,272,VALID,0,
2010-01-30, 00:55:04,VALID,1001.08,VALID,0,VALID,93.6078,VALID,0,VALID,23.6232,VALID,272,VALID,0,
2010-01-30, 00:56:04,VALID,1001.11,VALID,0,VALID,93.6231,VALID,0,VALID,23.6036,VALID,272,VALID,0,
2010-01-30, 00:57:04,VALID,1001.1,VALID,0,VALID,93.6383,VALID,0.112286,VALID,23.6019,VALID,272,VALID,0,
2010-01-30, 00:58:04,VALID,1001.07,VALID,0,VALID,93.6231,VALID,0,VALID,23.5823,VALID,272,VALID,0,
2010-01-30, 00:59:04,VALID,1001.01,VALID,0,VALID,93.6536,VALID,0,VALID,23.6036,VALID,269,VALID,0,
2010-01-30, 01:00:04,VALID,1001.04,VALID,0,VALID,93.6612,VALID,0,VALID,23.6232,VALID,269,VALID,0,
2010-01-30, 01:01:04,VALID,1001.03,VALID,0,VALID,93.6841,VALID,0,VALID,23.6232,VALID,259,VALID,0,
2010-01-30, 01:02:04,VALID,1001.03,VALID,0,VALID,93.6841,VALID,0,VALID,23.6232,VALID,259,VALID,0,
2010-01-30, 01:03:04,VALID,1001.04,VALID,0,VALID,93.6994,VALID,0.112286,VALID,23.6036,VALID,259,VALID,0,
2010-01-30, 01:04:04,VALID,1001,VALID,0,VALID,93.6841,VALID,0,VALID,23.6036,VALID,259,VALID,0,
2010-01-30, 01:05:04,VALID,1000.99,VALID,0,VALID,93.6612,VALID,0,VALID,23.5841,VALID,259,VALID,0,
2010-01-30, 01:06:04,VALID,1000.97,VALID,0,VALID,93.6917,VALID,0,VALID,23.5433,VALID,259,VALID,0,
2010-01-30, 01:07:04,VALID,1000.94,VALID,0,VALID,93.6688,VALID,0,VALID,23.5433,VALID,259,VALID,0,
2010-01-30, 01:08:04,VALID,1000.94,VALID,0,VALID,93.6917,VALID,0,VALID,23.5646,VALID,259,VALID,0,
2010-01-30, 01:09:04,VALID,1000.97,VALID,0,VALID,93.707,VALID,0,VALID,23.5646,VALID,247,VALID,0,
2010-01-30, 01:10:04,VALID,1000.93,VALID,0,VALID,93.6688,VALID,0,VALID,23.5451,VALID,247,VALID,0,
2010-01-30, 01:11:04,VALID,1000.94,VALID,0,VALID,93.7146,VALID,0,VALID,23.5238,VALID,195,VALID,0,
2010-01-30, 01:12:04,VALID,1000.91,VALID,0,VALID,93.7375,VALID,0,VALID,23.5451,VALID,193,VALID,0,
2010-01-30, 01:13:04,VALID,1000.94,VALID,0,VALID,93.7375,VALID,0,VALID,23.5451,VALID,193,VALID,0,
2010-01-30, 01:14:04,VALID,1000.9,VALID,0,VALID,93.7528,VALID,0,VALID,23.5238,VALID,193,VALID,0,
2010-01-30, 01:15:04,VALID,1000.91,VALID,0,VALID,93.7451,VALID,0,VALID,23.5451,VALID,193,VALID,0,
2010-01-30, 01:16:04,VALID,1000.91,VALID,0,VALID,93.707,VALID,0,VALID,23.5061,VALID,193,VALID,0,
2010-01-30, 01:17:04,VALID,1000.93,VALID,0,VALID,93.707,VALID,0,VALID,23.4866,VALID,193,VALID,0,
2010-01-30, 01:18:04,VALID,1000.89,VALID,0,VALID,93.707,VALID,0,VALID,23.4848,VALID,193,VALID,0,
2010-01-30, 01:19:04,VALID,1000.91,VALID,0,VALID,93.7223,VALID,0,VALID,23.4866,VALID,193,VALID,0,
2010-01-30, 01:20:04,VALID,1000.94,VALID,0,VALID,93.707,VALID,0,VALID,23.4866,VALID,193,VALID,0,
2010-01-30, 01:21:04,VALID,1000.95,VALID,0,VALID,93.7299,VALID,0,VALID,23.4671,VALID,193,VALID,0,
2010-01-30, 01:22:04,VALID,1000.96,VALID,0,VALID,93.7223,VALID,0,VALID,23.4671,VALID,193,VALID,0,
2010-01-30, 01:23:04,VALID,1000.93,VALID,0,VALID,93.7375,VALID,0,VALID,23.4671,VALID,193,VALID,0,
2010-01-30, 01:24:04,VALID,1000.96,VALID,0,VALID,93.768,VALID,0,VALID,23.4866,VALID,193,VALID,0,
2010-01-30, 01:25:04,VALID,1000.97,VALID,0,VALID,93.768,VALID,0,VALID,23.4671,VALID,193,VALID,0,
2010-01-30, 01:26:04,VALID,1000.98,VALID,0,VALID,93.7604,VALID,0,VALID,23.4671,VALID,193,VALID,0,
2010-01-30, 01:27:04,VALID,1000.99,VALID,0,VALID,93.7833,VALID,0,VALID,23.4458,VALID,193,VALID,0,
2010-01-30, 01:28:04,VALID,1000.96,VALID,0,VALID,93.8214,VALID,0,VALID,23.4671,VALID,193,VALID,0,
2010-01-30, 01:29:04,VALID,1000.94,VALID,0,VALID,93.8062,VALID,0,VALID,23.4866,VALID,193,VALID,0,
2010-01-30, 01:30:04,VALID,1000.96,VALID,0,VALID,93.8062,VALID,0,VALID,23.4866,VALID,193,VALID,0,
2010-01-30, 01:31:04,VALID,1000.95,VALID,0,VALID,93.8214,VALID,0,VALID,23.4866,VALID,193,VALID,0,
2010-01-30, 01:32:04,VALID,1000.93,VALID,0,VALID,93.8062,VALID,0,VALID,23.4671,VALID,193,VALID,0,
2010-01-30, 01:33:04,VALID,1000.97,VALID,0,VALID,93.8367,VALID,0,VALID,23.4671,VALID,193,VALID,0,
2010-01-30, 01:34:04,VALID,1000.96,VALID,0,VALID,93.852,VALID,0,VALID,23.4866,VALID,202,VALID,0,
2010-01-30, 01:35:04,VALID,1000.96,VALID,0,VALID,93.852,VALID,0,VALID,23.4671,VALID,316,VALID,0.735547,
2010-01-30, 01:36:04,VALID,1000.98,VALID,0,VALID,93.852,VALID,0,VALID,23.4866,VALID,335,VALID,0.911719,
2010-01-30, 01:37:04,VALID,1000.96,VALID,0,VALID,93.8596,VALID,0,VALID,23.5061,VALID,342,VALID,0.975,
2010-01-30, 01:38:04,VALID,1000.96,VALID,0,VALID,93.8901,VALID,0,VALID,23.5061,VALID,346,VALID,1.09375,
2010-01-30, 01:39:04,VALID,1000.99,VALID,0,VALID,93.8977,VALID,0,VALID,23.5256,VALID,5,VALID,1.31328,
2010-01-30, 01:40:04,VALID,1000.98,VALID,0,VALID,93.9283,VALID,0,VALID,23.5646,VALID,16,VALID,1.31445,
2010-01-30, 01:41:04,VALID,1000.97,VALID,0,VALID,93.9283,VALID,0,VALID,23.5646,VALID,10,VALID,1.26211,
2010-01-30, 01:42:04,VALID,1000.99,VALID,0.5,VALID,93.9435,VALID,0,VALID,23.5823,VALID,355,VALID,1.40898,
2010-01-30, 01:43:04,VALID,1000.96,VALID,0,VALID,93.9359,VALID,0,VALID,23.6214,VALID,353,VALID,1.11172,
2010-01-30, 01:44:04,VALID,1000.94,VALID,0,VALID,93.9511,VALID,0,VALID,23.6622,VALID,351,VALID,0.66875,
2010-01-30, 01:45:04,VALID,1000.91,VALID,0,VALID,93.9588,VALID,0,VALID,23.6604,VALID,351,VALID,0.425,
2010-01-30, 01:46:04,VALID,1000.92,VALID,0,VALID,93.9511,VALID,0,VALID,23.6817,VALID,352,VALID,0.078125,
2010-01-30, 01:47:04,VALID,1000.9,VALID,0,VALID,93.9511,VALID,0,VALID,23.6799,VALID,348,VALID,1.18672,
2010-01-30, 01:48:04,VALID,1000.92,VALID,0,VALID,93.9435,VALID,0,VALID,23.6994,VALID,305,VALID,0.769531,
2010-01-30, 01:49:04,VALID,1000.91,VALID,0,VALID,93.9511,VALID,0,VALID,23.7402,VALID,310,VALID,0.65625,
2010-01-30, 01:50:04,VALID,1000.89,VALID,0,VALID,93.9359,VALID,0,VALID,23.7402,VALID,331,VALID,0.933203,
2010-01-30, 01:51:04,VALID,1000.84,VALID,0,VALID,93.9435,VALID,0,VALID,23.7189,VALID,320,VALID,0.577734,
2010-01-30, 01:52:04,VALID,1000.82,VALID,0,VALID,93.9588,VALID,0,VALID,23.7402,VALID,309,VALID,1.81016,
2010-01-30, 01:53:04,VALID,1000.79,VALID,0,VALID,93.9588,VALID,0,VALID,23.7579,VALID,336,VALID,1.58906,
2010-01-30, 01:54:04,VALID,1000.77,VALID,0,VALID,93.9283,VALID,0,VALID,23.7579,VALID,346,VALID,2.07578,
2010-01-30, 01:55:04,VALID,1000.77,VALID,0,VALID,93.8977,VALID,0,VALID,23.7579,VALID,342,VALID,1.64258,
2010-01-30, 01:56:04,VALID,1000.74,VALID,0,VALID,93.8748,VALID,0,VALID,23.797,VALID,335,VALID,2.10898,
2010-01-30, 01:57:04,VALID,1000.69,VALID,0,VALID,93.8214,VALID,0,VALID,23.8573,VALID,346,VALID,1.63672,
2010-01-30, 01:58:04,VALID,1000.71,VALID,0,VALID,93.7451,VALID,0,VALID,23.9159,VALID,341,VALID,1.49492,
2010-01-30, 01:59:04,VALID,1000.71,VALID,0,VALID,93.6765,VALID,0,VALID,23.9549,VALID,340,VALID,1.21914,
2010-01-30, 02:00:04,VALID,1000.71,VALID,0,VALID,93.5086,VALID,0,VALID,23.9549,VALID,350,VALID,2.05312,
2010-01-30, 02:01:04,VALID,1000.69,VALID,0,VALID,93.3484,VALID,0,VALID,23.9549,VALID,349,VALID,2.27852,
2010-01-30, 02:02:04,VALID,1000.72,VALID,0,VALID,93.089,VALID,0,VALID,23.9744,VALID,348,VALID,1.95938,
2010-01-30, 02:03:04,VALID,1000.72,VALID,0,VALID,92.7685,VALID,0,VALID,23.9744,VALID,346,VALID,1.65625,
2010-01-30, 02:04:04,VALID,1000.69,VALID,0,VALID,92.2268,VALID,0,VALID,23.9744,VALID,352,VALID,2.19375,
2010-01-30, 02:05:04,VALID,1000.67,VALID,0,VALID,91.7233,VALID,0,VALID,23.9744,VALID,348,VALID,2.0457,
2010-01-30, 02:06:04,VALID,1000.66,VALID,0.5,VALID,91.296,VALID,0,VALID,23.9939,VALID,346,VALID,1.57539,
2010-01-30, 02:07:04,VALID,1000.63,VALID,0,VALID,90.9756,VALID,0,VALID,23.9726,VALID,341,VALID,1.59102,
2010-01-30, 02:08:04,VALID,1000.6,VALID,0,VALID,90.6323,VALID,0,VALID,23.9744,VALID,353,VALID,1.66523,
2010-01-30, 02:09:04,VALID,1000.62,VALID,0,VALID,90.5712,VALID,0,VALID,23.9939,VALID,337,VALID,1.30508,
2010-01-30, 02:10:04,VALID,1000.62,VALID,0,VALID,90.3728,VALID,0,VALID,23.9939,VALID,336,VALID,1.1832,
2010-01-30, 02:11:04,VALID,1000.61,VALID,0,VALID,90.3728,VALID,0,VALID,23.9744,VALID,353,VALID,1.28828,
2010-01-30, 02:12:04,VALID,1000.58,VALID,0,VALID,90.2813,VALID,0,VALID,23.9939,VALID,351,VALID,1.13945,
2010-01-30, 02:13:04,VALID,1000.59,VALID,0,VALID,90.1516,VALID,0,VALID,23.9939,VALID,351,VALID,0.627344,
2010-01-30, 02:14:04,VALID,1000.6,VALID,0,VALID,90.1287,VALID,0,VALID,23.9939,VALID,349,VALID,0.516016,
2010-01-30, 02:15:04,VALID,1000.58,VALID,0,VALID,90.1668,VALID,0,VALID,23.9939,VALID,321,VALID,0.116016,
2010-01-30, 02:16:04,VALID,1000.57,VALID,0,VALID,90.2203,VALID,0,VALID,23.9744,VALID,321,VALID,0,
2010-01-30, 02:17:04,VALID,1000.58,VALID,0,VALID,90.3423,VALID,0,VALID,23.9744,VALID,321,VALID,0.0941406,
2010-01-30, 02:18:04,VALID,1000.6,VALID,0,VALID,90.4568,VALID,0,VALID,23.9336,VALID,321,VALID,0,
2010-01-30, 02:19:04,VALID,1000.58,VALID,0,VALID,90.3957,VALID,0,VALID,23.9354,VALID,322,VALID,0,
2010-01-30, 02:20:04,VALID,1000.59,VALID,0,VALID,90.4339,VALID,0,VALID,23.9354,VALID,322,VALID,0,
2010-01-30, 02:21:04,VALID,1000.59,VALID,0,VALID,90.678,VALID,0,VALID,23.9354,VALID,322,VALID,0,
2010-01-30, 02:22:04,VALID,1000.59,VALID,0,VALID,90.7314,VALID,0,VALID,23.9354,VALID,322,VALID,0,
2010-01-30, 02:23:04,VALID,1000.61,VALID,0,VALID,91.1206,VALID,0,VALID,23.914,VALID,146,VALID,1.06055,
2010-01-30, 02:24:04,VALID,1000.61,VALID,0,VALID,91.6012,VALID,0,VALID,23.9939,VALID,163,VALID,1.51406,
2010-01-30, 02:25:04,VALID,1000.57,VALID,0,VALID,91.8759,VALID,0,VALID,23.9939,VALID,159,VALID,1.65469,
2010-01-30, 02:26:04,VALID,1000.6,VALID,0,VALID,92.1124,VALID,0,VALID,23.9726,VALID,159,VALID,1.25937,
2010-01-30, 02:27:04,VALID,1000.58,VALID,0,VALID,92.3031,VALID,0,VALID,23.9939,VALID,159,VALID,1.45117,
2010-01-30, 02:28:04,VALID,1000.61,VALID,0,VALID,92.4252,VALID,0,VALID,23.9726,VALID,153,VALID,0.745703,
2010-01-30, 02:29:04,VALID,1000.63,VALID,0,VALID,92.4786,VALID,0,VALID,23.9726,VALID,147,VALID,0.505859,
2010-01-30, 02:30:04,VALID,1000.62,VALID,0,VALID,92.4557,VALID,0,VALID,23.9531,VALID,148,VALID,0.419531,
2010-01-30, 02:31:04,VALID,1000.64,VALID,0,VALID,92.4557,VALID,0,VALID,23.9744,VALID,164,VALID,0.716016,
2010-01-30, 02:32:04,VALID,1000.63,VALID,0,VALID,92.4176,VALID,0,VALID,23.9744,VALID,151,VALID,0.781641,
2010-01-30, 02:33:04,VALID,1000.64,VALID,0,VALID,92.5015,VALID,0,VALID,23.9939,VALID,155,VALID,0.740234,
2010-01-30, 02:34:04,VALID,1000.64,VALID,0,VALID,92.5244,VALID,0,VALID,23.9921,VALID,156,VALID,0.75,
2010-01-30, 02:35:04,VALID,1000.65,VALID,0,VALID,92.5168,VALID,0,VALID,24.0134,VALID,158,VALID,0.703906,
2010-01-30, 02:36:04,VALID,1000.61,VALID,0,VALID,92.5091,VALID,0,VALID,24.0134,VALID,170,VALID,0.911719,
2010-01-30, 02:37:04,VALID,1000.65,VALID,0,VALID,92.5473,VALID,0,VALID,24.0134,VALID,167,VALID,0.750781,
2010-01-30, 02:38:04,VALID,1000.65,VALID,0,VALID,92.5397,VALID,0,VALID,24.0134,VALID,163,VALID,0.885547,
2010-01-30, 02:39:04,VALID,1000.68,VALID,0,VALID,92.4634,VALID,0,VALID,24.0134,VALID,160,VALID,0.952734,
2010-01-30, 02:40:04,VALID,1000.7,VALID,0,VALID,92.4557,VALID,0,VALID,23.9921,VALID,159,VALID,0.682031,
2010-01-30, 02:41:04,VALID,1000.66,VALID,0,VALID,92.4557,VALID,0,VALID,24.0134,VALID,147,VALID,0.855469,
2010-01-30, 02:42:04,VALID,1000.65,VALID,0,VALID,92.471,VALID,0,VALID,24.0134,VALID,134,VALID,0.785547,
2010-01-30, 02:43:04,VALID,1000.64,VALID,0,VALID,92.532,VALID,0,VALID,24.0329,VALID,132,VALID,0.878516,
2010-01-30, 02:44:04,VALID,1000.62,VALID,0,VALID,92.5549,VALID,0,VALID,24.0525,VALID,122,VALID,0.734766,
2010-01-30, 02:45:04,VALID,1000.67,VALID,0,VALID,92.6007,VALID,0,VALID,24.0525,VALID,118,VALID,1.01445,
2010-01-30, 02:46:04,VALID,1000.67,VALID,0,VALID,92.738,VALID,0,VALID,24.072,VALID,108,VALID,1.36563,
2010-01-30, 02:47:04,VALID,1000.66,VALID,0,VALID,92.7228,VALID,0,VALID,24.0915,VALID,107,VALID,1.90039,
2010-01-30, 02:48:04,VALID,1000.64,VALID,0,VALID,92.6846,VALID,0,VALID,24.0506,VALID,90,VALID,1.60312,
2010-01-30, 02:49:04,VALID,1000.7,VALID,0,VALID,92.6236,VALID,0,VALID,24.111,VALID,84,VALID,1.90469,
2010-01-30, 02:50:04,VALID,1000.69,VALID,0,VALID,92.4481,VALID,0,VALID,24.15,VALID,106,VALID,1.99492,
2010-01-30, 02:51:04,VALID,1000.65,VALID,0,VALID,92.0056,VALID,0,VALID,24.1696,VALID,121,VALID,2.23516,
2010-01-30, 02:52:04,VALID,1000.66,VALID,0,VALID,91.6699,VALID,0,VALID,24.2086,VALID,108,VALID,1.91836,
2010-01-30, 02:53:04,VALID,1000.69,VALID,0,VALID,91.502,VALID,0,VALID,24.2476,VALID,120,VALID,1.84102,
2010-01-30, 02:54:04,VALID,1000.67,VALID,0,VALID,91.4105,VALID,0,VALID,24.2671,VALID,136,VALID,1.43906,
2010-01-30, 02:55:04,VALID,1000.62,VALID,0,VALID,91.2884,VALID,0,VALID,24.2458,VALID,132,VALID,2.57227,
2010-01-30, 02:56:04,VALID,1000.66,VALID,0,VALID,91.4028,VALID,0,VALID,24.2671,VALID,140,VALID,1.56875,
2010-01-30, 02:57:04,VALID,1000.64,VALID,0,VALID,91.3266,VALID,0,VALID,24.2281,VALID,128,VALID,1.46445,
2010-01-30, 02:58:04,VALID,1000.7,VALID,0,VALID,91.5249,VALID,0,VALID,24.2281,VALID,125,VALID,0.723828,
2010-01-30, 02:59:04,VALID,1000.66,VALID,0.5,VALID,91.4257,VALID,0,VALID,24.1891,VALID,134,VALID,1.33789,
2010-01-30, 03:00:04,VALID,1000.68,VALID,0,VALID,91.3418,VALID,0,VALID,24.15,VALID,124,VALID,1.28437,
2010-01-30, 03:01:04,VALID,1000.64,VALID,0,VALID,91.3189,VALID,0,VALID,24.15,VALID,107,VALID,1.21211,
2010-01-30, 03:02:04,VALID,1000.62,VALID,0.5,VALID,90.884,VALID,0,VALID,24.111,VALID,89,VALID,1.41719,
2010-01-30, 03:03:04,VALID,1000.56,VALID,0,VALID,90.2737,VALID,0,VALID,24.0915,VALID,103,VALID,1.72148,
2010-01-30, 03:04:04,VALID,1000.53,VALID,0.5,VALID,90.2813,VALID,0,VALID,24.111,VALID,129,VALID,1.76953,
2010-01-30, 03:05:04,VALID,1000.55,VALID,0,VALID,90.3271,VALID,0,VALID,24.1305,VALID,122,VALID,1.49688,
2010-01-30, 03:06:04,VALID,1000.51,VALID,0,VALID,90.3271,VALID,0,VALID,24.0915,VALID,111,VALID,1.39805,
2010-01-30, 03:07:04,VALID,1000.52,VALID,0.5,VALID,90.4949,VALID,0,VALID,24.0701,VALID,128,VALID,0.589063,
2010-01-30, 03:08:04,VALID,1000.51,VALID,0,VALID,90.7238,VALID,0,VALID,24.0311,VALID,92,VALID,1.64375,
2010-01-30, 03:09:04,VALID,1000.47,VALID,0,VALID,90.5254,VALID,0,VALID,23.9921,VALID,117,VALID,1.57187,
2010-01-30, 03:10:04,VALID,1000.46,VALID,0.5,VALID,90.5407,VALID,0,VALID,24.0134,VALID,109,VALID,1.47734,
2010-01-30, 03:11:04,VALID,1000.45,VALID,0,VALID,90.6017,VALID,0,VALID,24.0116,VALID,128,VALID,1.38398,
2010-01-30, 03:12:04,VALID,1000.45,VALID,0.5,VALID,90.3652,VALID,0,VALID,23.9921,VALID,127,VALID,1.47812,
2010-01-30, 03:13:04,VALID,1000.45,VALID,0,VALID,90.4186,VALID,0,VALID,23.9726,VALID,131,VALID,1.49453,
2010-01-30, 03:14:04,VALID,1000.47,VALID,0,VALID,90.7696,VALID,0,VALID,24.0134,VALID,142,VALID,1.45195,
2010-01-30, 03:15:04,VALID,1000.46,VALID,0,VALID,90.8993,VALID,0,VALID,23.9744,VALID,136,VALID,1.4457,
2010-01-30, 03:16:04,VALID,1000.48,VALID,0,VALID,91.09,VALID,0,VALID,23.9744,VALID,135,VALID,1.11016,
2010-01-30, 03:17:04,VALID,1000.5,VALID,0,VALID,91.1129,VALID,0,VALID,23.9354,VALID,128,VALID,1.38242,
2010-01-30, 03:18:04,VALID,1000.5,VALID,0,VALID,91.1053,VALID,0,VALID,23.9159,VALID,126,VALID,1.54688,
2010-01-30, 03:19:04,VALID,1000.51,VALID,0,VALID,91.2197,VALID,0,VALID,23.8963,VALID,117,VALID,1.47148,
2010-01-30, 03:20:04,VALID,1000.5,VALID,0,VALID,91.3189,VALID,0,VALID,23.8963,VALID,119,VALID,0.808594,
2010-01-30, 03:21:04,VALID,1000.48,VALID,0,VALID,91.3647,VALID,0,VALID,23.8573,VALID,124,VALID,1.1082,
2010-01-30, 03:22:04,VALID,1000.45,VALID,0,VALID,91.3723,VALID,0,VALID,23.8768,VALID,116,VALID,1.22852,
2010-01-30, 03:23:04,VALID,1000.46,VALID,0,VALID,91.3876,VALID,0,VALID,23.8573,VALID,125,VALID,1.12734,
2010-01-30, 03:24:04,VALID,1000.45,VALID,0,VALID,91.441,VALID,0,VALID,23.8768,VALID,122,VALID,1.03125,
2010-01-30, 03:25:04,VALID,1000.49,VALID,0,VALID,91.4028,VALID,0,VALID,23.8768,VALID,130,VALID,1.07969,
2010-01-30, 03:26:04,VALID,1000.45,VALID,0,VALID,91.3418,VALID,0,VALID,23.8768,VALID,120,VALID,1.15937,
2010-01-30, 03:27:04,VALID,1000.45,VALID,0,VALID,91.2045,VALID,0,VALID,23.8768,VALID,122,VALID,1.25234,
2010-01-30, 03:28:04,VALID,1000.48,VALID,0,VALID,91.1663,VALID,0,VALID,23.8768,VALID,127,VALID,0.935938,
2010-01-30, 03:29:04,VALID,1000.46,VALID,0,VALID,91.0214,VALID,0,VALID,23.8963,VALID,141,VALID,0.973437,
2010-01-30, 03:30:04,VALID,1000.48,VALID,0,VALID,91.0214,VALID,0,VALID,23.8768,VALID,144,VALID,0.903516,
2010-01-30, 03:31:04,VALID,1000.42,VALID,0,VALID,91.0519,VALID,0,VALID,23.8768,VALID,144,VALID,0.917578,
2010-01-30, 03:32:04,VALID,1000.43,VALID,0,VALID,91.1053,VALID,0,VALID,23.8982,VALID,158,VALID,1.07031,
2010-01-30, 03:33:04,VALID,1000.43,VALID,0,VALID,91.1282,VALID,0,VALID,23.8768,VALID,164,VALID,1.27148,
2010-01-30, 03:34:04,VALID,1000.45,VALID,0,VALID,91.2503,VALID,0,VALID,23.8768,VALID,175,VALID,1.09258,
2010-01-30, 03:35:04,VALID,1000.44,VALID,0,VALID,91.3266,VALID,0,VALID,23.8768,VALID,168,VALID,1.3125,
2010-01-30, 03:36:04,VALID,1000.44,VALID,0,VALID,91.3189,VALID,0,VALID,23.8768,VALID,173,VALID,1.27891,
2010-01-30, 03:37:04,VALID,1000.47,VALID,0,VALID,91.3037,VALID,0,VALID,23.8768,VALID,164,VALID,1.44883,
2010-01-30, 03:38:04,VALID,1000.52,VALID,0,VALID,91.2197,VALID,0,VALID,23.8768,VALID,162,VALID,1.57383,
2010-01-30, 03:39:04,VALID,1000.5,VALID,0,VALID,91.1282,VALID,0,VALID,23.8768,VALID,161,VALID,1.26367,
2010-01-30, 03:40:04,VALID,1000.52,VALID,0,VALID,91.1053,VALID,0,VALID,23.8378,VALID,169,VALID,1.1957,
2010-01-30, 03:41:04,VALID,1000.52,VALID,0,VALID,90.9832,VALID,0,VALID,23.8396,VALID,168,VALID,0.842188,
2010-01-30, 03:42:04,VALID,1000.54,VALID,0,VALID,91.09,VALID,0,VALID,23.8396,VALID,180,VALID,0.799609,
2010-01-30, 03:43:04,VALID,1000.53,VALID,0,VALID,90.9985,VALID,0,VALID,23.7988,VALID,199,VALID,0.886328,
2010-01-30, 03:44:04,VALID,1000.57,VALID,0,VALID,90.9374,VALID,0,VALID,23.8183,VALID,232,VALID,0.780078,
2010-01-30, 03:45:04,VALID,1000.56,VALID,0,VALID,90.823,VALID,0,VALID,23.8183,VALID,236,VALID,0.944531,
2010-01-30, 03:46:04,VALID,1000.57,VALID,0,VALID,90.5026,VALID,0,VALID,23.8183,VALID,230,VALID,1.12188,
2010-01-30, 03:47:04,VALID,1000.6,VALID,0,VALID,90.0753,VALID,0,VALID,23.8786,VALID,213,VALID,0.284766,
2010-01-30, 03:48:04,VALID,1000.58,VALID,0,VALID,90.0524,VALID,0,VALID,23.8768,VALID,206,VALID,0.685938,
2010-01-30, 03:49:04,VALID,1000.58,VALID,0,VALID,90.2508,VALID,0,VALID,23.8768,VALID,210,VALID,0.458203,
2010-01-30, 03:50:04,VALID,1000.58,VALID,0,VALID,90.3423,VALID,0,VALID,23.8573,VALID,216,VALID,0.685547,